• In Portugal
  • List of Countries
  • For 7 days
  • Water Temperature
  • Satellite Maps
  • Weather Map
  • Weather Widgets
  • user-avatar
    Login

    Hourly Weather Gaborone

    Today, 17 October, Tuesday

    Time Temperature Precipitation Wind Pressure Humidity
    00:00 +23°C° 0 mm 4 mps 676 mmHg 15%
    01:00 +22°C° 0 mm 4 mps 676 mmHg 15%
    02:00 +21°C° 0 mm 4 mps 675 mmHg 15%
    03:00 +21°C° 0 mm 3 mps 675 mmHg 16%
    04:00 +20°C° 0 mm 3 mps 675 mmHg 16%
    05:00 +19°C° 0 mm 2 mps 675 mmHg 16%
    06:00 +20°C° 0 mm 2 mps 676 mmHg 15%
    07:00 +22°C° 0 mm 3 mps 676 mmHg 13%
    08:00 +22°C° 0 mm 3 mps 677 mmHg 12%
    09:00 +25°C° 0 mm 3 mps 677 mmHg 10%
    10:00 +28°C° 0 mm 4 mps 677 mmHg 8%
    11:00 +30°C° 0 mm 4 mps 677 mmHg 7%
    12:00 +32°C° 0 mm 5 mps 677 mmHg 6%
    13:00 +33°C° 0 mm 5 mps 677 mmHg 5%
    14:00 +33°C° 0 mm 5 mps 677 mmHg 5%
    15:00 +33°C° 0 mm 5 mps 676 mmHg 5%
    16:00 +32°C° 0 mm 5 mps 676 mmHg 5%
    17:00 +32°C° 0 mm 5 mps 676 mmHg 5%
    18:00 +29°C° 0 mm 4 mps 676 mmHg 6%
    19:00 +28°C° 0 mm 3 mps 676 mmHg 6%
    20:00 +26°C° 0 mm 2 mps 677 mmHg 7%
    21:00 +25°C° 0 mm 2 mps 677 mmHg 8%
    22:00 +24°C° 0 mm 2 mps 677 mmHg 9%
    23:00 +23°C° 0 mm 2 mps 678 mmHg 10%

    Tomorrow, 18 October, Wednesday

    Time Temperature Precipitation Wind Pressure Humidity
    00:00 +21°C° 0 mm 2 mps 677 mmHg 12%
    01:00 +20°C° 0 mm 2 mps 677 mmHg 14%
    02:00 +19°C° 0 mm 2 mps 677 mmHg 15%
    03:00 +19°C° 0 mm 2 mps 677 mmHg 17%
    04:00 +18°C° 0 mm 2 mps 676 mmHg 18%
    05:00 +17°C° 0 mm 2 mps 676 mmHg 20%
    06:00 +19°C° 0 mm 2 mps 677 mmHg 18%
    07:00 +21°C° 0 mm 2 mps 677 mmHg 17%
    08:00 +22°C° 0 mm 3 mps 678 mmHg 15%
    09:00 +26°C° 0 mm 3 mps 678 mmHg 12%
    10:00 +28°C° 0 mm 3 mps 678 mmHg 10%
    11:00 +32°C° 0 mm 4 mps 678 mmHg 7%
    12:00 +33°C° 0 mm 4 mps 677 mmHg 7%
    13:00 +35°C° 0 mm 3 mps 677 mmHg 7%
    14:00 +36°C° 0 mm 3 mps 676 mmHg 6%
    15:00 +36°C° 0 mm 3 mps 676 mmHg 6%
    16:00 +36°C° 0 mm 3 mps 676 mmHg 6%
    17:00 +37°C° 0 mm 2 mps 675 mmHg 6%
    18:00 +35°C° 0 mm 2 mps 675 mmHg 8%
    19:00 +32°C° 0 mm 2 mps 675 mmHg 10%
    20:00 +30°C° 0 mm 2 mps 675 mmHg 12%
    21:00 +29°C° 0 mm 3 mps 675 mmHg 21%
    22:00 +28°C° 0 mm 5 mps 676 mmHg 30%
    23:00 +26°C° 0 mm 6 mps 676 mmHg 39%

    Day after tomorrow, 19 October, Thursday

    Time Temperature Precipitation Wind Pressure Humidity
    00:00 +26°C° 0 mm 6 mps 675 mmHg 42%
    01:00 +24°C° 0 mm 6 mps 675 mmHg 45%
    02:00 +23°C° 0 mm 5 mps 675 mmHg 48%
    03:00 +22°C° 0 mm 5 mps 674 mmHg 51%
    04:00 +21°C° 0 mm 4 mps 674 mmHg 53%
    05:00 +21°C° 0 mm 4 mps 674 mmHg 55%
    06:00 +22°C° 0 mm 4 mps 674 mmHg 52%
    07:00 +23°C° 0 mm 5 mps 675 mmHg 50%
    08:00 +25°C° 0 mm 5 mps 675 mmHg 47%
    09:00 +27°C° 0 mm 5 mps 676 mmHg 40%
    10:00 +30°C° 0 mm 5 mps 676 mmHg 33%
    11:00 +33°C° 0 mm 5 mps 676 mmHg 25%
    12:00 +36°C° 0 mm 5 mps 676 mmHg 21%
    13:00 +39°C° 0 mm 5 mps 675 mmHg 16%
    14:00 +41°C° 0 mm 6 mps 675 mmHg 11%
    15:00 +41°C° 0 mm 6 mps 675 mmHg 10%
    16:00 +41°C° 0 mm 6 mps 674 mmHg 8%
    17:00 +41°C° 0 mm 6 mps 674 mmHg 7%
    18:00 +39°C° 0 mm 5 mps 674 mmHg 7%
    19:00 +36°C° 0 mm 4 mps 675 mmHg 8%
    20:00 +33°C° 0 mm 3 mps 675 mmHg 8%
    21:00 +33°C° 0 mm 4 mps 675 mmHg 8%
    22:00 +32°C° 0 mm 4 mps 676 mmHg 9%
    23:00 +30°C° 0 mm 5 mps 676 mmHg 9%

    20 October, Friday

    Time Temperature Precipitation Wind Pressure Humidity
    00:00 +29°C° 0 mm 4 mps 676 mmHg 9%
    01:00 +28°C° 0 mm 3 mps 676 mmHg 10%
    02:00 +26°C° 0 mm 3 mps 675 mmHg 10%
    03:00 +26°C° 0 mm 2 mps 675 mmHg 11%
    04:00 +26°C° 0 mm 2 mps 675 mmHg 11%
    05:00 +25°C° 0 mm 1 mps 675 mmHg 12%
    06:00 +27°C° 0 mm 2 mps 676 mmHg 11%
    07:00 +28°C° 0 mm 2 mps 677 mmHg 10%
    08:00 +30°C° 0 mm 3 mps 677 mmHg 9%
    09:00 +33°C° 0 mm 3 mps 678 mmHg 11%
    10:00 +35°C° 0 mm 4 mps 678 mmHg 12%
    11:00 +37°C° 0 mm 4 mps 678 mmHg 14%
    12:00 +38°C° 0 mm 4 mps 677 mmHg 14%
    13:00 +41°C° 0 mm 5 mps 677 mmHg 14%
    14:00 +42°C° 0 mm 5 mps 676 mmHg 13%
    15:00 +41°C° 0 mm 4 mps 676 mmHg 14%
    16:00 +39°C° 0 mm 3 mps 676 mmHg 15%
    17:00 +38°C° 0 mm 2 mps 675 mmHg 16%
    18:00 +36°C° 0 mm 3 mps 676 mmHg 22%
    19:00 +34°C° 0 mm 4 mps 676 mmHg 28%
    20:00 +32°C° 0 mm 4 mps 676 mmHg 33%
    21:00 +30°C° 0 mm 4 mps 677 mmHg 38%
    22:00 +29°C° 0 mm 4 mps 677 mmHg 43%
    23:00 +28°C° 0 mm 3 mps 677 mmHg 47%

    21 October, Saturday

    Time Temperature Precipitation Wind Pressure Humidity
    00:00 +28°C° 0.1 mm 3 mps 677 mmHg 50%
    01:00 +27°C° 0.1 mm 3 mps 677 mmHg 52%
    02:00 +26°C° 0.1 mm 2 mps 677 mmHg 54%
    03:00 +26°C° 0.1 mm 3 mps 677 mmHg 57%
    04:00 +25°C° 0.1 mm 3 mps 677 mmHg 59%
    05:00 +25°C° 0.1 mm 4 mps 677 mmHg 62%
    06:00 +25°C° 0 mm 4 mps 678 mmHg 59%
    07:00 +26°C° 0 mm 5 mps 679 mmHg 56%
    08:00 +27°C° 0 mm 5 mps 679 mmHg 54%
    09:00 +29°C° 0 mm 5 mps 680 mmHg 48%
    10:00 +32°C° 0 mm 5 mps 680 mmHg 42%
    11:00 +34°C° 0 mm 5 mps 680 mmHg 36%
    12:00 +35°C° 0 mm 5 mps 679 mmHg 33%
    13:00 +36°C° 0 mm 5 mps 679 mmHg 30%
    14:00 +37°C° 0 mm 5 mps 678 mmHg 28%
    15:00 +38°C° 0.1 mm 6 mps 678 mmHg 30%
    16:00 +36°C° 0.1 mm 6 mps 678 mmHg 32%
    17:00 +35°C° 0.1 mm 7 mps 677 mmHg 35%
    18:00 +33°C° 1.6 mm 7 mps 678 mmHg 44%
    19:00 +29°C° 1.6 mm 7 mps 678 mmHg 53%
    20:00 +27°C° 1.6 mm 7 mps 679 mmHg 62%
    21:00 +27°C° 1 mm 7 mps 679 mmHg 61%
    22:00 +27°C° 1 mm 7 mps 680 mmHg 61%
    23:00 +26°C° 1 mm 6 mps 680 mmHg 60%

    22 October, Sunday

    Time Temperature Precipitation Wind Pressure Humidity
    00:00 +26°C° 0 mm 6 mps 680 mmHg 62%
    01:00 +25°C° 0 mm 5 mps 680 mmHg 64%
    02:00 +25°C° 0 mm 5 mps 679 mmHg 66%
    03:00 +25°C° 0 mm 5 mps 679 mmHg 68%
    04:00 +23°C° 0 mm 5 mps 679 mmHg 69%
    05:00 +23°C° 0 mm 4 mps 679 mmHg 71%
    06:00 +25°C° 0 mm 5 mps 680 mmHg 69%
    07:00 +24°C° 0 mm 6 mps 681 mmHg 66%
    08:00 +26°C° 0 mm 6 mps 681 mmHg 64%
    09:00 +27°C° 0 mm 6 mps 681 mmHg 58%
    10:00 +29°C° 0 mm 7 mps 681 mmHg 52%
    11:00 +32°C° 0 mm 7 mps 681 mmHg 47%
    12:00 +33°C° 0 mm 6 mps 681 mmHg 42%
    13:00 +34°C° 0 mm 6 mps 680 mmHg 38%
    14:00 +35°C° 0 mm 5 mps 680 mmHg 34%
    15:00 +35°C° 0 mm 5 mps 680 mmHg 34%
    16:00 +35°C° 0 mm 5 mps 679 mmHg 34%
    17:00 +35°C° 0 mm 4 mps 679 mmHg 33%
    18:00 +34°C° 0 mm 4 mps 679 mmHg 36%
    19:00 +33°C° 0 mm 4 mps 679 mmHg 38%
    20:00 +32°C° 0 mm 4 mps 678 mmHg 41%
    21:00 +30°C° 0 mm 4 mps 679 mmHg 43%
    22:00 +29°C° 0 mm 3 mps 679 mmHg 44%
    23:00 +29°C° 0 mm 2 mps 679 mmHg 46%
    Show more